Location: Neuvy Saint Sepulchre
(46.5953°N, 1.8122°E)
Time: 16:39:32
(UTC+02:00)

ISS - Pass Details

Date: 01 May 2026
Orbit: 414 x 424 km, 51.6° (Epoch: 21 May)

Event Time Altitude Azimuth Distance (km) Brightness Sun altitude
Exits shadow 04:48:48 12° 296° (WNW) 1,405 -1.3 -16.4°
Maximum altitude 04:51:38 33° 1° (N) 732 -2.1 -16.1°
Drops below altitude 10° 04:54:44 10° 67° (ENE) 1,504 0.2 -15.7°
Sets 04:56:58 0° 77° (ENE) 2,371 1.1 -15.4°
